Date String (YYYY-MM-DD hh:mm:ss) UTC,Instrument flags,absolute air pressure of the measurement (hPa),sample flow rate (lpm),inlet stack bypass flow (lpm),air temperature of the measurement (°C),ambient temperature measured by the external sensor (°C),aerosol sample conditioner tube jacket temperature (°C),OPC LED temperature (°C),internal box temperature (°C),relative humidity of the measurement (%),span deviation,mass concentration of particles derived from Lorenz-Mie calculation of OPC scattering (μg/m³),mass concentration of particles derived from Lorenz-Mie calculation of OPC scattering (μg/m³),mass concentration of particles derived from Lorenz-Mie calculation of OPC scattering (μg/m³)
DateTimeUTC,F1_M11,P_M11,Q1_M11,Q2_M11,T1_M11,T2_M11,T3_M11,T4_M11,T5_M11,U1_M11,ZSPAN_M11,X0_M11,X2_M11,X1_M11
2024-05-28 06:00:00,SystemResetWarning,0835.3,4.99,000.00,031.2,030.4,000.0,039.6,032.9,013.8,0000.0,0014.83,0003.68,0002.82
2024-05-28 06:01:00,SystemResetWarning,0835.3,4.99,000.00,031.2,030.4,000.0,039.6,032.8,013.7,0000.0,0014.13,0003.64,0002.81
2024-05-28 06:02:00,SystemResetWarning,0835.3,5.01,000.00,031.2,030.4,000.0,039.6,032.8,013.6,0000.0,0013.84,0003.61,0002.82
2024-05-28 06:03:00,SystemResetWarning,0835.3,5.00,000.00,031.2,030.4,000.0,039.6,032.8,013.6,0000.0,0013.85,0003.62,0002.84
2024-05-28 06:04:00,SystemResetWarning,0835.3,5.00,000.00,031.2,030.4,000.0,039.5,032.8,013.7,0000.0,0013.75,0003.66,0002.88
2024-05-28 06:05:00,SystemResetWarning,0835.3,4.99,000.00,031.2,030.4,000.0,039.6,032.8,013.7,0000.0,0012.18,0003.66,0002.93
2024-05-28 06:06:00,SystemResetWarning,0835.3,4.99,000.00,031.2,030.4,000.0,039.6,032.8,013.8,0000.0,0011.39,0003.66,0002.96
2024-05-28 06:07:00,SystemResetWarning,0835.3,5.01,000.00,031.2,030.4,000.0,039.6,032.8,013.8,0000.0,0010.82,0003.65,0002.95
2024-05-28 06:08:00,SystemResetWarning,0835.3,5.01,000.00,031.2,030.4,000.0,039.6,032.8,013.8,0000.0,0011.02,0003.66,0002.95
2024-05-28 06:09:00,SystemResetWarning,0835.2,5.01,000.00,031.2,030.4,000.0,039.6,032.8,013.8,0000.0,0011.37,0003.68,0002.95
2024-05-28 06:10:00,SystemResetWarning,0835.2,5.01,000.00,031.2,030.4,000.0,039.6,032.8,013.8,0000.0,0011.18,0003.66,0002.94
2024-05-28 06:11:00,SystemResetWarning,0835.2,4.99,000.00,031.2,030.4,000.0,039.5,032.8,013.9,0000.0,0011.32,0003.62,0002.95
2024-05-28 06:12:00,SystemResetWarning,0835.2,5.00,000.00,031.2,030.4,000.0,039.5,032.8,013.8,0000.0,0012.41,0003.63,0002.95
2024-05-28 06:13:00,SystemResetWarning,0835.2,5.00,000.00,031.2,030.4,000.0,039.5,032.8,013.8,0000.0,0012.55,0003.63,0002.93
2024-05-28 06:14:00,SystemResetWarning,0835.2,5.00,000.00,031.2,030.4,000.0,039.5,032.8,013.7,0000.0,0013.62,0003.65,0002.90
2024-05-28 06:15:00,SystemResetWarning,0835.3,5.00,000.00,031.2,030.4,000.0,039.5,032.8,013.8,0000.0,0014.48,0003.63,0002.84
2024-05-28 06:16:00,SystemResetWarning,0835.4,5.00,000.00,031.2,030.4,000.0,039.5,032.8,013.7,0000.0,0014.20,0003.62,0002.78
2024-05-28 06:17:00,SystemResetWarning,0835.4,5.00,000.00,031.2,030.4,000.0,039.5,032.8,013.7,0000.0,0014.08,0003.63,0002.73
2024-05-28 06:18:00,SystemResetWarning,0835.5,5.01,000.00,031.2,030.4,000.0,039.5,032.8,013.8,0000.0,0014.59,0003.60,0002.69
2024-05-28 06:19:00,SystemResetWarning,0835.5,5.01,000.00,031.2,030.4,000.0,039.5,032.8,013.8,0000.0,0014.84,0003.61,0002.67
2024-05-28 06:20:00,SystemResetWarning,0835.5,5.00,000.00,031.2,030.4,000.0,039.5,032.8,013.8,0000.0,0014.30,0003.62,0002.65
2024-05-28 06:21:00,SystemResetWarning,0835.5,4.99,000.00,031.2,030.4,000.0,039.5,032.8,013.8,0000.0,0014.15,0003.63,0002.63
2024-05-28 06:22:00,SystemResetWarning,0835.5,5.00,000.00,031.2,030.4,000.0,039.5,032.8,013.8,0000.0,0014.90,0003.68,0002.63
2024-05-28 06:23:00,SystemResetWarning,0835.5,4.99,000.00,031.2,030.4,000.0,039.5,032.8,013.7,0000.0,0014.46,0003.67,0002.61
2024-05-28 06:24:00,SystemResetWarning,0835.5,5.00,000.00,031.2,030.4,000.0,039.5,032.8,013.8,0000.0,0013.63,0003.64,0002.59
2024-05-28 06:25:00,SystemResetWarning,0835.5,5.01,000.00,031.2,030.4,000.0,039.5,032.8,013.8,0000.0,0012.58,0003.60,0002.57
2024-05-28 06:26:00,SystemResetWarning,0835.5,5.01,000.00,031.2,030.4,000.0,039.5,032.8,013.8,0000.0,0011.94,0003.57,0002.57
2024-05-28 06:27:00,SystemResetWarning,0835.5,5.01,000.00,031.2,030.4,000.0,039.5,032.8,013.8,0000.0,0013.25,0003.61,0002.57
2024-05-28 06:28:00,SystemResetWarning,0835.5,5.00,000.00,031.2,030.4,000.0,039.5,032.8,013.7,0000.0,0012.98,0003.61,0002.58
2024-05-28 06:29:00,SystemResetWarning,0835.5,5.00,000.00,031.2,030.4,000.0,039.5,032.8,013.7,0000.0,0012.78,0003.62,0002.58
2024-05-28 06:30:00,SystemResetWarning,0835.5,5.00,000.00,031.2,030.4,000.0,039.5,032.8,013.6,0000.0,0012.37,0003.65,0002.58
2024-05-28 06:31:00,SystemResetWarning,0835.6,4.99,000.00,031.2,030.4,000.0,039.5,032.8,013.7,0000.0,0011.59,0003.65,0002.58
2024-05-28 06:32:00,SystemResetWarning,0835.6,4.99,000.00,031.2,030.4,000.0,039.5,032.8,013.7,0000.0,0011.94,0003.65,0002.59
2024-05-28 06:33:00,SystemResetWarning,0835.6,5.00,000.00,031.2,030.3,000.0,039.5,032.8,013.6,0000.0,0011.49,0003.62,0002.58
2024-05-28 06:34:00,SystemResetWarning,0835.5,5.00,000.00,031.2,030.3,000.0,039.5,032.8,013.6,0000.0,0012.70,0003.64,0002.57
2024-05-28 06:35:00,SystemResetWarning,0835.6,5.00,000.00,031.2,030.3,000.0,039.5,032.8,013.6,0000.0,0012.75,0003.67,0002.57
2024-05-28 06:36:00,SystemResetWarning,0835.7,5.00,000.00,031.2,030.3,000.0,039.5,032.8,013.6,0000.0,0012.72,0003.69,0002.58
2024-05-28 06:37:00,SystemResetWarning,0835.6,5.00,000.00,031.2,030.3,000.0,039.5,032.8,013.6,0000.0,0013.06,0003.72,0002.59
2024-05-28 06:38:00,SystemResetWarning,0835.6,5.00,000.00,031.2,030.3,000.0,039.5,032.8,013.5,0000.0,0012.49,0003.69,0002.59
2024-05-28 06:39:00,SystemResetWarning,0835.6,5.00,000.00,031.2,030.4,000.0,039.5,032.8,013.5,0000.0,0012.63,0003.66,0002.58
2024-05-28 06:40:00,SystemResetWarning,0835.6,5.00,000.00,031.2,030.4,000.0,039.5,032.8,013.6,0000.0,0012.64,0003.63,0002.55
2024-05-28 06:41:00,SystemResetWarning,0835.6,5.00,000.00,031.2,030.4,000.0,039.5,032.8,013.6,0000.0,0012.44,0003.56,0002.54
2024-05-28 06:42:00,SystemResetWarning,0835.6,5.00,000.00,031.2,030.4,000.0,039.6,032.8,013.6,0000.0,0012.58,0003.56,0002.54
2024-05-28 06:43:00,SystemResetWarning,0835.6,5.01,000.00,031.2,030.4,000.0,039.6,032.9,013.7,0000.0,0012.39,0003.59,0002.53
2024-05-28 06:44:00,SystemResetWarning,0835.6,5.00,000.00,031.2,030.4,000.0,039.6,032.8,013.7,0000.0,0011.85,0003.58,0002.54
2024-05-28 06:45:00,SystemResetWarning,0835.6,5.00,000.00,031.2,030.4,000.0,039.6,032.8,013.7,0000.0,0010.29,0003.56,0002.54
2024-05-28 06:46:00,SystemResetWarning,0835.6,5.00,000.00,031.2,030.4,000.0,039.6,032.8,013.7,0000.0,0010.22,0003.54,0002.54
2024-05-28 06:47:00,SystemResetWarning,0835.6,5.00,000.00,031.2,030.4,000.0,039.6,032.9,013.8,0000.0,0010.03,0003.58,0002.55
2024-05-28 06:48:00,SystemResetWarning,0835.6,5.00,000.00,031.2,030.4,000.0,039.6,032.9,013.8,0000.0,0009.25,0003.60,0002.55
2024-05-28 06:49:00,SystemResetWarning,0835.6,5.00,000.00,031.2,030.4,000.0,039.6,032.9,013.8,0000.0,0008.71,0003.60,0002.53
2024-05-28 06:50:00,SystemResetWarning,0835.6,5.00,000.00,031.2,030.4,000.0,039.6,032.9,013.7,0000.0,0008.87,0003.61,0002.52
2024-05-28 06:51:00,SystemResetWarning,0835.6,5.00,000.00,031.2,030.4,000.0,039.6,032.9,013.8,0000.0,0009.68,0003.63,0002.54
2024-05-28 06:52:00,SystemResetWarning,0835.6,5.00,000.00,031.2,030.4,000.0,039.6,032.9,013.8,0000.0,0010.59,0003.73,0002.56
2024-05-28 06:53:00,SystemResetWarning,0835.6,5.00,000.00,031.2,030.4,000.0,039.6,032.9,013.8,0000.0,0010.88,0003.74,0002.56
2024-05-28 06:54:00,SystemResetWarning,0835.6,5.00,000.00,031.2,030.4,000.0,039.6,032.9,013.8,0000.0,0011.13,0003.71,0002.55
2024-05-28 06:55:00,SystemResetWarning,0835.6,4.99,000.00,031.2,030.4,000.0,039.6,032.8,013.8,0000.0,0011.81,0003.70,0002.53
2024-05-28 06:56:00,SystemResetWarning,0835.6,5.00,000.00,031.2,030.4,000.0,039.6,032.8,013.8,0000.0,0012.55,0003.70,0002.49
2024-05-28 06:57:00,SystemResetWarning,0835.6,5.00,000.00,031.2,030.4,000.0,039.6,032.8,013.8,0000.0,0013.35,0003.70,0002.48
2024-05-28 06:58:00,SystemResetWarning,0835.6,5.00,000.00,031.2,030.4,000.0,039.6,032.8,013.8,0000.0,0013.35,0003.65,0002.45
2024-05-28 06:59:00,SystemResetWarning,0835.5,5.00,000.00,031.2,030.3,000.0,039.6,032.8,013.8,0000.0,0014.99,0003.62,0002.42
